STARLINK-36985

Last updated on Mon Mar 30 2026 00:02:05 GMT+0000 (Coordinated Universal Time)

1 68014U 26039AE 26088.16668981 .00029226 00000+0 10679-2 0 9993 2 68014 42.9992 298.6356 0001540 271.0503 151.8306 15.27564762 6008
UTC large
Height (km)
Speed (km/s)
/
Latitude / Longitude
Inclination (degrees)
Orbital Period (minutes)
Azimuth
Elevation
Range (km)
Doppler Factor

Next 0 passes for location: London (51.5072 / 0.1276)

Sorry there are no passes over London.